QPF
0.00 0.00 0.00 0.01 0.00 0.00 0.00 0.00 0.01 0.01 0.00 0.00 0.00 0.00 0.01 0.01 0.00 0.00 0.00 0.00 0.00 0.00 0.01 0.01 0.01 0.01 0.01 0.01 0.01 0.01 0.01 0.01 0.01 0.02 0.02 0.03 0.04 0.05 0.05 0.06 0.06 0.09 0.13 0.17
0.01 0.01 0.00 0.00 0.00 0.00 0.00 0.00 0.01 0.01 0.00 0.00 0.00 0.01 0.02 0.01 0.00 0.00 0.00 0.00 0.00 0.00 0.00 0.01 0.00 0.00 0.00 0.00 0.01 0.01 0.01 0.01 0.01 0.02 0.02 0.03 0.03 0.03 0.05 0.06 0.06 0.08 0.12 0.19
0.00 0.01 0.00 0.00 0.00 0.00 0.00 0.01 0.02 0.03 0.02 0.01 0.01 0.06 0.10 0.06 0.01 0.00 0.00 0.00 0.00 0.00 0.01 0.01 0.01 0.00 0.00 0.00 0.00 0.00 0.00 0.00 0.01 0.01 0.02 0.02 0.02 0.02 0.03 0.04 0.05 0.06 0.07 0.11
0.00 0.00 0.00 0.01 0.01 0.01 0.02 0.01 0.00 0.00 0.01 0.03 0.03 0.14 0.31 0.26 0.10 0.03 0.00 0.00 0.00 0.00 0.00 0.00 0.00 0.00 0.00 0.00 0.00 0.00 0.00 0.00 0.00 0.00 0.01 0.00 0.01 0.01 0.01 0.02 0.03 0.04 0.06 0.08
0.01 0.00 0.00 0.00 0.01 0.00 0.01 0.00 0.00 0.00 0.00 0.02 0.04 0.15 0.34 0.34 0.29 0.12 0.01 0.00 0.00 0.00 0.00 0.00 0.00 0.00 0.00 0.00 0.00 0.00 0.00 0.00 0.00 0.00 0.00 0.00 0.00 0.00 0.01 0.01 0.02 0.02 0.04 0.06
0.00 0.00 0.00 0.00 0.00 0.00 0.00 0.00 0.01 0.03 0.04 0.06 0.10 0.13 0.26 0.36 0.29 0.12 0.02 0.00 0.00 0.00 0.00 0.00 0.00 0.00 0.00 0.00 0.00 0.00 0.00 0.01 0.01 0.01 0.01 0.01 0.01 0.01 0.00 0.01 0.01 0.02 0.03 0.04
0.01 0.01 0.00 0.00 0.00 0.01 0.00 0.01 0.13 0.30 0.23 0.17 0.11 0.13 0.22 0.14 0.06 0.03 0.01 0.00 0.00 0.00 0.00 0.00 0.00 0.00 0.00 0.00 0.00 0.00 0.00 0.01 0.01 0.01 0.01 0.01 0.01 0.01 0.01 0.01 0.01 0.01 0.01 0.01
0.06 0.06 0.01 0.00 0.00 0.00 0.00 0.01 0.07 0.16 0.14 0.16 0.14 0.24 0.25 0.05 0.01 0.00 0.00 0.00 0.00 0.00 0.00 0.00 0.00 0.00 0.00 0.00 0.00 0.00 0.00 0.01 0.01 0.01 0.02 0.01 0.01 0.00 0.00 0.00 0.01 0.01 0.01 0.01
0.05 0.03 0.00 0.00 0.00 0.00 0.00 0.00 0.01 0.01 0.02 0.05 0.13 0.29 0.18 0.02 0.00 0.00 0.00 0.00 0.00 0.00 0.00 0.00 0.00 0.00 0.00 0.00 0.00 0.00 0.00 0.00 0.01 0.01 0.01 0.01 0.01 0.01 0.00 0.00 0.01 0.00 0.01 0.01
0.01 0.01 0.01 0.00 0.00 0.00 0.00 0.00 0.00 0.00 0.01 0.03 0.07 0.16 0.16 0.04 0.01 0.00 0.00 0.00 0.00 0.00 0.00 0.00 0.00 0.00 0.00 0.00 0.00 0.00 0.00 0.00 0.00 0.01 0.01 0.00 0.00 0.01 0.01 0.01 0.01 0.01 0.01 0.01
0.00 0.00 0.01 0.00 0.00 0.00 0.00 0.00 0.00 0.00 0.00 0.01 0.04 0.09 0.04 0.01 0.00 0.00 0.00 0.00 0.00 0.00 0.00 0.00 0.00 0.00 0.00 0.00 0.00 0.00 0.00 0.00 0.00 0.00 0.00 0.00 0.00 0.00 0.00 0.01 0.01 0.01 0.01 0.01
0.00 0.00 0.01 0.01 0.01 0.00 0.00 0.00 0.00 0.01 0.00 0.00 0.01 0.04 0.00 0.00 0.00 0.00 0.00 0.00 0.00 0.00 0.00 0.00 0.00 0.00 0.00 0.00 0.00 0.00 0.00 0.00 0.00 0.00 0.00 0.00 0.00 0.00 0.00 0.00 0.00 0.01 0.01 0.01
0.00 0.00 0.01 0.06 0.08 0.02 0.00 0.00 0.00 0.00 0.00 0.00 0.00 0.01 0.00 0.00 0.00 0.00 0.00 0.00 0.00 0.00 0.00 0.00 0.00 0.00 0.00 0.00 0.00 0.00 0.00 0.00 0.00 0.00 0.00 0.00 0.00 0.00 0.00 0.00 0.01 0.01 0.01 0.02
0.00 0.00 0.00 0.01 0.03 0.01 0.00 0.00 0.00 0.00 0.00 0.00 0.00 0.00 0.00 0.00 0.00 0.00 0.00 0.00 0.00 0.00 0.00 0.00 0.00 0.00 0.00 0.00 0.00 0.00 0.00 0.00 0.00 0.00 0.00 0.00 0.00 0.00 0.01 0.01 0.01 0.01 0.02 0.02
0.00 0.00 0.00 0.00 0.00 0.00 0.00 0.00 0.00 0.00 0.00 0.00 0.00 0.00 0.00 0.00 0.00 0.00 0.00 0.00 0.00 0.00 0.00 0.00 0.00 0.00 0.00 0.00 0.00 0.00 0.00 0.00 0.00 0.00 0.00 0.00 0.01 0.01 0.01 0.01 0.02 0.02 0.03 0.03
0.00 0.00 0.00 0.00 0.00 0.00 0.00 0.00 0.00 0.00 0.00 0.00 0.00 0.00 0.00 0.00 0.00 0.00 0.00 0.00 0.00 0.00 0.00 0.00 0.00 0.00 0.00 0.00 0.00 0.00 0.00 0.00 0.00 0.00 0.01 0.01 0.01 0.02 0.02 0.02 0.02 0.03 0.04 0.05
0.00 0.00 0.00 0.00 0.01 0.00 0.00 0.00 0.00 0.00 0.00 0.00 0.00 0.00 0.00 0.00 0.00 0.00 0.00 0.00 0.00 0.00 0.00 0.00 0.00 0.00 0.00 0.00 0.00 0.00 0.00 0.00 0.00 0.01 0.01 0.01 0.02 0.02 0.03 0.03 0.04 0.05 0.06 0.07
0.00 0.00 0.00 0.00 0.00 0.01 0.00 0.00 0.00 0.00 0.00 0.00 0.00 0.00 0.00 0.00 0.00 0.00 0.00 0.00 0.00 0.00 0.00 0.00 0.00 0.00 0.00 0.00 0.00 0.00 0.00 0.00 0.01 0.01 0.01 0.02 0.02 0.03 0.04 0.05 0.05 0.06 0.08 0.08
0.00 0.00 0.00 0.00 0.00 0.00 0.00 0.00 0.00 0.00 0.00 0.00 0.00 0.00 0.00 0.00 0.00 0.00 0.00 0.00 0.00 0.00 0.00 0.00 0.00 0.00 0.00 0.00 0.00 0.00 0.00 0.00 0.01 0.01 0.02 0.02 0.03 0.04 0.04 0.05 0.06 0.08 0.09 0.09
0.00 0.00 0.00 0.00 0.00 0.00 0.00 0.00 0.00 0.00 0.00 0.00 0.00 0.00 0.00 0.00 0.00 0.00 0.00 0.00 0.00 0.00 0.00 0.00 0.00 0.00 0.00 0.00 0.00 0.00 0.01 0.01 0.02 0.02 0.02 0.02 0.03 0.04 0.05 0.05 0.07 0.08 0.10 0.10
0.00 0.00 0.00 0.00 0.00 0.00 0.00 0.00 0.00 0.00 0.00 0.00 0.00 0.00 0.00 0.00 0.00 0.00 0.00 0.00 0.00 0.00 0.00 0.00 0.00 0.00 0.00 0.01 0.01 0.01 0.01 0.02 0.02 0.02 0.02 0.03 0.04 0.05 0.06 0.07 0.08 0.09 0.11 0.11
0.00 0.00 0.00 0.00 0.00 0.00 0.00 0.00 0.00 0.00 0.00 0.00 0.00 0.00 0.00 0.00 0.00 0.00 0.00 0.00 0.00 0.00 0.00 0.00 0.00 0.00 0.00 0.01 0.01 0.01 0.02 0.02 0.02 0.02 0.02 0.03 0.04 0.05 0.05 0.07 0.09 0.11 0.12 0.12
0.00 0.00 0.00 0.00 0.00 0.00 0.00 0.00 0.00 0.00 0.00 0.00 0.00 0.00 0.00 0.00 0.00 0.00 0.00 0.00 0.00 0.00 0.00 0.00 0.00 0.00 0.00 0.00 0.01 0.02 0.02 0.02 0.02 0.02 0.02 0.03 0.04 0.06 0.07 0.09 0.10 0.11 0.12 0.13
0.00 0.00 0.00 0.00 0.00 0.00 0.00 0.00 0.00 0.00 0.00 0.00 0.00 0.00 0.00 0.00 0.00 0.00 0.00 0.00 0.00 0.00 0.00 0.00 0.00 0.00 0.00 0.00 0.01 0.01 0.01 0.02 0.02 0.02 0.02 0.04 0.05 0.07 0.08 0.10 0.10 0.11 0.12 0.13
0.00 0.00 0.00 0.00 0.00 0.00 0.00 0.00 0.00 0.00 0.00 0.00 0.00 0.00 0.00 0.00 0.00 0.00 0.00 0.00 0.00 0.00 0.00 0.00 0.00 0.00 0.00 0.01 0.01 0.01 0.01 0.02 0.02 0.02 0.03 0.04 0.05 0.07 0.09 0.10 0.10 0.08 0.08 0.07
0.00 0.00 0.00 0.00 0.00 0.00 0.00 0.00 0.00 0.00 0.00 0.00 0.00 0.00 0.00 0.00 0.00 0.00 0.00 0.00 0.00 0.00 0.00 0.00 0.00 0.00 0.00 0.01 0.01 0.01 0.01 0.02 0.02 0.03 0.04 0.05 0.06 0.07 0.09 0.11 0.11 0.06 0.02 0.01
MSLP
1008.11 1008.95 1009.59 1009.99 1010.16 1010.14 1009.98 1009.73 1009.44 1009.15 1008.87 1008.62 1008.42 1008.28 1008.21 1008.24 1008.37 1008.60 1008.92 1009.31 1009.73 1010.13 1010.48 1010.75 1010.92 1011.00 1011.02 1011.01 1010.99 1011.01 1011.06 1011.14 1011.24 1011.33 1011.37 1011.36 1011.27 1011.13 1010.93 1010.73 1010.54 1010.38 1010.26 1010.19
1008.36 1009.10 1009.65 1010.01 1010.21 1010.29 1010.31 1010.29 1010.25 1010.21 1010.14 1010.03 1009.88 1009.69 1009.50 1009.32 1009.22 1009.20 1009.31 1009.52 1009.81 1010.15 1010.47 1010.74 1010.92 1011.02 1011.05 1011.03 1011.00 1011.00 1011.05 1011.14 1011.25 1011.36 1011.43 1011.44 1011.36 1011.19 1010.96 1010.71 1010.46 1010.25 1010.11 1010.02
1008.33 1008.92 1009.36 1009.67 1009.91 1010.13 1010.37 1010.63 1010.91 1011.17 1011.36 1011.43 1011.35 1011.14 1010.81 1010.43 1010.07 1009.78 1009.63 1009.62 1009.74 1009.96 1010.23 1010.48 1010.67 1010.79 1010.83 1010.82 1010.80 1010.80 1010.86 1010.96 1011.10 1011.25 1011.35 1011.38 1011.32 1011.16 1010.91 1010.63 1010.35 1010.12 1009.95 1009.87
1008.07 1008.47 1008.78 1009.04 1009.33 1009.69 1010.17 1010.74 1011.35 1011.94 1012.40 1012.67 1012.69 1012.46 1012.02 1011.44 1010.82 1010.26 1009.83 1009.59 1009.54 1009.63 1009.82 1010.05 1010.25 1010.38 1010.45 1010.46 1010.46 1010.48 1010.55 1010.67 1010.83 1011.01 1011.15 1011.22 1011.19 1011.05 1010.81 1010.53 1010.23 1009.98 1009.81 1009.74
1007.69 1007.89 1008.05 1008.26 1008.59 1009.09 1009.78 1010.63 1011.56 1012.45 1013.17 1013.63 1013.75 1013.52 1012.98 1012.22 1011.38 1010.58 1009.91 1009.46 1009.24 1009.22 1009.35 1009.55 1009.76 1009.92 1010.02 1010.06 1010.07 1010.10 1010.18 1010.31 1010.50 1010.70 1010.88 1010.99 1011.00 1010.89 1010.68 1010.40 1010.11 1009.85 1009.67 1009.59
1007.34 1007.34 1007.36 1007.50 1007.85 1008.45 1009.31 1010.38 1011.56 1012.68 1013.61 1014.21 1014.41 1014.18 1013.58 1012.70 1011.69 1010.70 1009.86 1009.25 1008.90 1008.80 1008.89 1009.09 1009.31 1009.50 1009.62 1009.68 1009.71 1009.74 1009.82 1009.95 1010.14 1010.36 1010.56 1010.71 1010.76 1010.69 1010.50 1010.24 1009.95 1009.69 1009.50 1009.41
1007.14 1006.97 1006.86 1006.93 1007.26 1007.91 1008.86 1010.06 1011.38 1012.64 1013.69 1014.38 1014.63 1014.41 1013.76 1012.81 1011.71 1010.62 1009.68 1008.99 1008.59 1008.45 1008.53 1008.74 1008.98 1009.19 1009.33 1009.41 1009.43 1009.45 1009.51 1009.62 1009.80 1010.01 1010.23 1010.39 1010.47 1010.43 1010.27 1010.03 1009.74 1009.47 1009.26 1009.14
1007.17 1006.87 1006.66 1006.65 1006.94 1007.56 1008.52 1009.73 1011.07 1012.36 1013.44 1014.15 1014.41 1014.19 1013.55 1012.59 1011.48 1010.38 1009.43 1008.74 1008.34 1008.22 1008.32 1008.55 1008.81 1009.04 1009.19 1009.26 1009.27 1009.26 1009.27 1009.35 1009.49 1009.68 1009.88 1010.05 1010.14 1010.12 1009.98 1009.75 1009.46 1009.17 1008.92 1008.77
1007.43 1007.06 1006.78 1006.70 1006.92 1007.46 1008.34 1009.46 1010.71 1011.92 1012.92 1013.59 1013.82 1013.61 1013.00 1012.09 1011.05 1010.03 1009.16 1008.54 1008.21 1008.15 1008.29 1008.55 1008.83 1009.07 1009.21 1009.25 1009.22 1009.17 1009.13 1009.14 1009.23 1009.37 1009.54 1009.69 1009.77 1009.76 1009.62 1009.40 1009.10 1008.79 1008.51 1008.31
1007.85 1007.47 1007.17 1007.05 1007.18 1007.60 1008.33 1009.28 1010.34 1011.38 1012.24 1012.80 1012.99 1012.78 1012.23 1011.43 1010.53 1009.65 1008.93 1008.44 1008.22 1008.23 1008.43 1008.72 1009.01 1009.23 1009.35 1009.36 1009.28 1009.16 1009.06 1009.01 1009.03 1009.11 1009.23 1009.34 1009.40 1009.37 1009.23 1009.00 1008.69 1008.36 1008.05 1007.81
1008.31 1008.00 1007.73 1007.59 1007.64 1007.94 1008.48 1009.20 1010.03 1010.84 1011.51 1011.93 1012.06 1011.87 1011.41 1010.75 1010.02 1009.34 1008.81 1008.48 1008.38 1008.48 1008.72 1009.02 1009.30 1009.49 1009.57 1009.53 1009.40 1009.23 1009.06 1008.94 1008.89 1008.91 1008.97 1009.03 1009.05 1009.00 1008.85 1008.60 1008.29 1007.94 1007.60 1007.32
1008.72 1008.52 1008.32 1008.20 1008.21 1008.39 1008.74 1009.24 1009.81 1010.37 1010.84 1011.12 1011.18 1011.02 1010.65 1010.16 1009.63 1009.16 1008.82 1008.65 1008.67 1008.83 1009.10 1009.39 1009.63 1009.78 1009.81 1009.72 1009.54 1009.32 1009.10 1008.93 1008.82 1008.78 1008.78 1008.78 1008.76 1008.67 1008.50 1008.24 1007.92 1007.56 1007.21 1006.90
1008.98 1008.93 1008.85 1008.79 1008.79 1008.88 1009.08 1009.36 1009.70 1010.03 1010.30 1010.46 1010.47 1010.34 1010.08 1009.75 1009.42 1009.14 1008.97 1008.94 1009.04 1009.25 1009.51 1009.76 1009.94 1010.03 1010.01 1009.87 1009.66 1009.41 1009.16 1008.96 1008.81 1008.71 1008.66 1008.61 1008.54 1008.41 1008.22 1007.94 1007.62 1007.25 1006.90 1006.57
1009.08 1009.19 1009.25 1009.28 1009.30 1009.35 1009.43 1009.55 1009.70 1009.84 1009.95 1010.00 1009.98 1009.88 1009.73 1009.55 1009.38 1009.28 1009.25 1009.32 1009.46 1009.67 1009.88 1010.07 1010.18 1010.20 1010.13 1009.96 1009.73 1009.47 1009.21 1008.99 1008.82 1008.69 1008.59 1008.49 1008.37 1008.20 1007.98 1007.69 1007.36 1007.00 1006.65 1006.32
1009.04 1009.31 1009.51 1009.64 1009.71 1009.74 1009.76 1009.76 1009.77 1009.77 1009.77 1009.75 1009.71 1009.65 1009.59 1009.54 1009.51 1009.52 1009.59 1009.71 1009.86 1010.02 1010.17 1010.27 1010.30 1010.26 1010.13 1009.94 1009.71 1009.46 1009.22 1009.01 1008.83 1008.67 1008.53 1008.39 1008.22 1008.01 1007.75 1007.45 1007.11 1006.76 1006.41 1006.08
1008.93 1009.32 1009.63 1009.85 1009.98 1010.02 1010.01 1009.94 1009.86 1009.78 1009.70 1009.64 1009.60 1009.59 1009.60 1009.64 1009.71 1009.81 1009.93 1010.05 1010.18 1010.28 1010.34 1010.35 1010.30 1010.19 1010.02 1009.82 1009.60 1009.38 1009.17 1008.97 1008.80 1008.62 1008.45 1008.26 1008.03 1007.78 1007.48 1007.15 1006.81 1006.46 1006.11 1005.78
1008.81 1009.27 1009.65 1009.93 1010.11 1010.17 1010.14 1010.04 1009.92 1009.78 1009.67 1009.60 1009.57 1009.60 1009.67 1009.78 1009.91 1010.06 1010.19 1010.30 1010.37 1010.39 1010.37 1010.29 1010.16 1010.00 1009.81 1009.61 1009.41 1009.22 1009.05 1008.87 1008.70 1008.51 1008.30 1008.05 1007.77 1007.46 1007.12 1006.76 1006.40 1006.04 1005.70 1005.37
1008.74 1009.20 1009.60 1009.90 1010.08 1010.15 1010.11 1010.00 1009.86 1009.71 1009.59 1009.53 1009.53 1009.59 1009.71 1009.87 1010.04 1010.20 1010.32 1010.40 1010.41 1010.37 1010.26 1010.11 1009.92 1009.72 1009.52 1009.33 1009.16 1009.00 1008.85 1008.69 1008.51 1008.30 1008.05 1007.75 1007.41 1007.04 1006.65 1006.25 1005.86 1005.49 1005.15 1004.82
1008.72 1009.13 1009.48 1009.74 1009.90 1009.95 1009.91 1009.79 1009.65 1009.50 1009.40 1009.36 1009.39 1009.49 1009.65 1009.84 1010.03 1010.19 1010.31 1010.35 1010.32 1010.21 1010.05 1009.84 1009.62 1009.40 1009.20 1009.03 1008.88 1008.74 1008.61 1008.45 1008.26 1008.01 1007.71 1007.35 1006.95 1006.52 1006.07 1005.63 1005.22 1004.83 1004.47 1004.15
1008.73 1009.03 1009.28 1009.47 1009.57 1009.58 1009.52 1009.40 1009.27 1009.15 1009.07 1009.07 1009.14 1009.28 1009.47 1009.68 1009.89 1010.05 1010.15 1010.17 1010.11 1009.97 1009.77 1009.54 1009.31 1009.09 1008.90 1008.74 1008.60 1008.48 1008.35 1008.18 1007.96 1007.67 1007.31 1006.89 1006.42 1005.93 1005.43 1004.95 1004.50 1004.10 1003.74 1003.42
1008.71 1008.86 1008.99 1009.07 1009.10 1009.06 1008.97 1008.86 1008.75 1008.66 1008.63 1008.67 1008.79 1008.97 1009.19 1009.42 1009.64 1009.80 1009.89 1009.90 1009.82 1009.68 1009.48 1009.25 1009.02 1008.82 1008.65 1008.50 1008.38 1008.25 1008.10 1007.91 1007.64 1007.30 1006.88 1006.40 1005.87 1005.32 1004.78 1004.27 1003.80 1003.38 1003.02 1002.71
1008.58 1008.59 1008.58 1008.54 1008.48 1008.40 1008.29 1008.20 1008.12 1008.09 1008.12 1008.22 1008.39 1008.61 1008.86 1009.11 1009.33 1009.50 1009.59 1009.60 1009.52 1009.39 1009.20 1009.00 1008.80 1008.62 1008.47 1008.34 1008.21 1008.08 1007.90 1007.66 1007.35 1006.95 1006.46 1005.92 1005.34 1004.74 1004.16 1003.62 1003.14 1002.73 1002.37 1002.07
1008.30 1008.16 1008.02 1007.88 1007.75 1007.63 1007.53 1007.47 1007.45 1007.49 1007.59 1007.76 1007.99 1008.25 1008.53 1008.80 1009.03 1009.19 1009.28 1009.30 1009.24 1009.12 1008.97 1008.80 1008.64 1008.49 1008.37 1008.25 1008.12 1007.96 1007.74 1007.45 1007.08 1006.61 1006.07 1005.47 1004.83 1004.20 1003.60 1003.05 1002.57 1002.16 1001.83 1001.55
1007.81 1007.56 1007.31 1007.10 1006.93 1006.80 1006.73 1006.72 1006.78 1006.90 1007.09 1007.34 1007.63 1007.94 1008.25 1008.53 1008.76 1008.92 1009.01 1009.03 1008.99 1008.90 1008.79 1008.66 1008.54 1008.43 1008.33 1008.21 1008.07 1007.88 1007.62 1007.27 1006.83 1006.30 1005.69 1005.03 1004.36 1003.70 1003.09 1002.54 1002.07 1001.68 1001.37 1001.13
1007.13 1006.79 1006.47 1006.22 1006.03 1005.92 1005.90 1005.97 1006.12 1006.34 1006.63 1006.96 1007.32 1007.68 1008.01 1008.30 1008.53 1008.69 1008.78 1008.81 1008.78 1008.72 1008.64 1008.56 1008.48 1008.40 1008.32 1008.21 1008.05 1007.83 1007.51 1007.10 1006.59 1005.99 1005.32 1004.62 1003.91 1003.23 1002.61 1002.07 1001.62 1001.26 1000.98 1000.78
1006.28 1005.88 1005.53 1005.26 1005.09 1005.02 1005.07 1005.22 1005.48 1005.81 1006.20 1006.62 1007.04 1007.44 1007.81 1008.11 1008.34 1008.49 1008.58 1008.61 1008.60 1008.56 1008.52 1008.47 1008.43 1008.37 1008.30 1008.19 1008.01 1007.75 1007.38 1006.91 1006.33 1005.67 1004.94 1004.19 1003.45 1002.75 1002.13 1001.61 1001.18 1000.86 1000.62 1000.45
Thickness
5803 5787 5775 5785 5798 5797 5797 5790 5786 5794 5812 5808 5798 5787 5785 5787 5783 5776 5771 5767 5764 5763 5766 5768 5768 5767 5765 5762 5759 5756 5752 5750 5748 5744 5740 5738 5735 5735 5734 5733 5730 5727 5725 5724
5790 5778 5791 5802 5805 5800 5797 5788 5787 5796 5810 5803 5789 5779 5779 5776 5775 5771 5766 5762 5759 5757 5758 5759 5759 5758 5756 5752 5750 5748 5745 5742 5739 5735 5733 5731 5729 5727 5727 5725 5723 5721 5719 5718
5781 5788 5804 5799 5796 5792 5790 5784 5782 5781 5791 5795 5783 5761 5756 5757 5763 5764 5763 5762 5759 5755 5752 5751 5751 5750 5748 5745 5742 5740 5736 5733 5730 5728 5725 5723 5720 5719 5717 5715 5714 5713 5712 5711
5790 5799 5800 5793 5789 5790 5774 5788 5788 5783 5774 5766 5766 5732 5726 5734 5742 5752 5756 5757 5755 5754 5751 5748 5746 5743 5741 5739 5737 5733 5729 5725 5722 5719 5715 5710 5707 5704 5705 5705 5705 5705 5704 5703
5786 5797 5795 5788 5793 5795 5788 5798 5786 5774 5763 5755 5747 5723 5711 5721 5725 5741 5749 5753 5752 5751 5748 5744 5742 5739 5737 5735 5732 5728 5723 5719 5715 5710 5706 5702 5698 5696 5696 5695 5695 5695 5695 5695
5792 5807 5808 5806 5810 5809 5806 5793 5772 5758 5743 5719 5719 5712 5705 5717 5729 5738 5747 5750 5749 5748 5745 5742 5740 5736 5733 5731 5727 5723 5717 5712 5708 5703 5698 5693 5688 5685 5683 5682 5682 5684 5685 5685
5770 5787 5804 5815 5800 5801 5797 5770 5728 5707 5697 5702 5726 5715 5713 5737 5748 5748 5747 5748 5749 5747 5743 5738 5734 5731 5728 5724 5721 5716 5710 5704 5700 5695 5690 5685 5680 5677 5674 5674 5673 5673 5673 5673
5744 5753 5787 5805 5798 5787 5791 5776 5737 5713 5710 5715 5717 5703 5717 5744 5755 5756 5754 5751 5749 5745 5740 5735 5732 5728 5723 5719 5714 5708 5702 5696 5692 5687 5682 5677 5673 5669 5668 5666 5664 5663 5662 5662
5757 5762 5798 5808 5810 5801 5786 5783 5786 5763 5752 5732 5716 5711 5721 5748 5752 5753 5751 5749 5744 5741 5737 5733 5729 5724 5719 5713 5707 5700 5693 5688 5683 5678 5674 5669 5666 5662 5659 5656 5654 5653 5653 5652
5786 5768 5792 5806 5811 5807 5799 5793 5780 5762 5743 5735 5725 5718 5718 5731 5739 5745 5745 5743 5740 5738 5734 5729 5724 5718 5712 5706 5699 5692 5685 5678 5673 5669 5664 5661 5657 5653 5650 5648 5645 5643 5642 5640
5797 5775 5782 5792 5782 5780 5785 5781 5773 5766 5759 5739 5726 5716 5742 5740 5744 5744 5743 5741 5737 5732 5727 5722 5717 5711 5704 5697 5689 5682 5675 5668 5663 5658 5654 5650 5647 5644 5642 5639 5636 5634 5632 5631
5798 5783 5764 5761 5774 5789 5786 5777 5769 5746 5743 5751 5742 5723 5757 5753 5751 5746 5741 5738 5733 5728 5723 5717 5709 5701 5693 5685 5678 5671 5665 5659 5653 5649 5644 5640 5637 5633 5630 5627 5625 5622 5620 5619
5787 5771 5751 5740 5741 5764 5775 5779 5774 5764 5754 5747 5737 5729 5758 5755 5748 5744 5737 5732 5726 5721 5715 5707 5699 5690 5682 5675 5668 5661 5655 5649 5644 5639 5634 5630 5625 5621 5617 5614 5611 5609 5607 5605
5788 5772 5758 5745 5751 5767 5769 5773 5772 5760 5744 5739 5740 5739 5748 5743 5738 5735 5731 5726 5721 5714 5706 5697 5688 5680 5673 5665 5659 5652 5646 5641 5635 5630 5624 5619 5614 5610 5606 5602 5599 5596 5593 5590
5787 5769 5771 5776 5782 5781 5775 5771 5769 5760 5752 5740 5740 5740 5738 5737 5734 5730 5726 5720 5713 5706 5698 5689 5680 5672 5664 5657 5650 5644 5638 5632 5626 5620 5614 5609 5604 5600 5595 5591 5587 5583 5580 5577
5785 5766 5767 5767 5777 5776 5772 5772 5767 5760 5756 5749 5744 5739 5743 5740 5734 5726 5721 5714 5706 5698 5690 5681 5673 5664 5656 5649 5643 5636 5630 5624 5618 5611 5605 5600 5595 5590 5585 5580 5576 5572 5567 5563
5778 5766 5755 5753 5769 5766 5756 5769 5764 5758 5757 5749 5735 5735 5739 5731 5723 5719 5716 5708 5698 5690 5682 5673 5664 5656 5649 5642 5635 5628 5622 5616 5609 5603 5597 5592 5586 5581 5575 5570 5565 5560 5555 5551
5772 5762 5756 5754 5755 5731 5758 5782 5773 5759 5754 5754 5746 5739 5733 5727 5723 5719 5711 5700 5691 5683 5674 5666 5658 5651 5644 5637 5629 5621 5614 5608 5602 5595 5589 5583 5577 5571 5566 5560 5554 5549 5544 5540
5783 5763 5752 5747 5742 5749 5760 5771 5766 5750 5742 5750 5740 5734 5731 5727 5719 5712 5705 5696 5686 5677 5669 5661 5653 5646 5638 5630 5621 5613 5607 5601 5594 5587 5581 5574 5568 5563 5557 5551 5546 5540 5535 5531
5782 5770 5753 5746 5732 5729 5755 5770 5772 5754 5730 5739 5737 5728 5723 5718 5701 5700 5700 5693 5683 5673 5665 5656 5649 5640 5631 5623 5615 5606 5600 5594 5586 5580 5573 5567 5561 5555 5550 5544 5539 5534 5529 5525
5761 5757 5749 5742 5737 5751 5762 5770 5764 5731 5720 5735 5734 5727 5720 5709 5701 5700 5697 5687 5678 5668 5660 5652 5643 5633 5625 5617 5609 5601 5594 5587 5580 5573 5568 5561 5555 5550 5545 5540 5535 5529 5525 5520
5764 5756 5751 5747 5734 5736 5764 5762 5744 5733 5740 5737 5732 5726 5718 5710 5705 5699 5690 5681 5672 5663 5655 5646 5637 5628 5620 5612 5604 5595 5588 5581 5575 5568 5563 5557 5552 5546 5542 5536 5532 5527 5522 5518
5775 5771 5762 5754 5748 5759 5767 5758 5754 5750 5740 5735 5729 5723 5716 5707 5699 5692 5683 5675 5666 5658 5650 5641 5632 5623 5615 5607 5599 5591 5584 5577 5571 5564 5558 5553 5549 5544 5539 5534 5529 5525 5520 5516
5779 5781 5765 5755 5761 5765 5765 5763 5757 5751 5741 5735 5729 5722 5713 5702 5695 5687 5678 5669 5661 5653 5645 5636 5627 5618 5610 5603 5595 5587 5580 5574 5567 5560 5555 5551 5546 5542 5538 5532 5527 5523 5519 5514
5770 5768 5760 5753 5759 5761 5761 5760 5755 5749 5742 5734 5727 5719 5709 5699 5690 5682 5673 5665 5656 5648 5640 5632 5622 5614 5606 5599 5592 5584 5577 5570 5563 5558 5554 5549 5545 5540 5536 5531 5526 5522 5518 5511
5774 5769 5758 5751 5760 5753 5752 5757 5754 5744 5735 5729 5720 5711 5705 5697 5687 5678 5669 5661 5652 5644 5636 5627 5619 5610 5603 5596 5589 5581 5574 5567 5561 5556 5552 5548 5544 5539 5535 5531 5527 5520 5514 5509